Flight Track Log - Related Links

Times and Time Zones

All times are in EDT time to prevent confusion due to time zone crossing. See the N830QS flight status page for this flight to view local times or setup timezone preferences in your user account.

Time Position Orientation Groundspeed Altitude Reporting Facility
EDT Latitude Longitude Course Direction KTS MPH feet Rate Location/Type
Fri 11:19:30 AM 37.4000 -121.9667 38° Northeast 197 227 2,800  Level Northern Cal TRACON
Fri 11:20:30 AM 37.4333 -121.9333 38° Northeast 234 269 5,000 1,350 Climbing Northern Cal TRACON
Fri 11:21:30 AM 37.3833 -121.8667 133° Southeast 273 314 5,500 1,143 Climbing Northern Cal TRACON
Fri 11:22:15 AM 37.3550 -121.8333 137° Southeast 268 308 7,000 849 Climbing Oakland Center
Fri 11:23:16 AM 37.2903 -121.7603 138° Southeast 280 322 7,000 683 Level Oakland Center
Fri 11:24:18 AM 37.2278 -121.6914 139° Southeast 277 319 8,400 1,902 Climbing Oakland Center
Fri 11:25:19 AM 37.1742 -121.6314 138° Southeast 281 323 10,900 2,754 Climbing Oakland Center
Fri 11:26:20 AM 37.1153 -121.5636 137° Southeast 285 328 14,000 2,585 Climbing Oakland Center
Fri 11:27:22 AM 37.0486 -121.4931 140° Southeast 288 331 16,200 1,951 Climbing Oakland Center
Fri 11:28:23 AM 36.9833 -121.4183 138° Southeast 308 354 18,000 2,000 Climbing Oakland Center
Fri 11:29:25 AM 36.9175 -121.3453 138° Southeast 316 364 20,300 1,951 Climbing Oakland Center
Fri 11:30:26 AM 36.8481 -121.2706 139° Southeast 325 374 22,000 1,820 Climbing Oakland Center
Fri 11:31:27 AM 36.7614 -121.1767 139° Southeast 340 391 24,000 1,756 Climbing Oakland Center
Fri 11:32:29 AM 36.6883 -121.0972 139° Southeast 344 396 25,600 1,268 Climbing Oakland Center
Fri 11:33:30 AM 36.6092 -121.0133 140° Southeast 361 415 26,600 683 Climbing Oakland Center
Fri 11:34:32 AM 36.5272 -120.9239 139° Southeast 379 436 27,000 195 Climbing Oakland Center
Fri 11:35:33 AM 36.4483 -120.8361 138° Southeast 383 441 27,000  Level Oakland Center
Fri 11:36:35 AM 36.3700 -120.7522 139° Southeast 375 432 27,000  Level Oakland Center
Fri 11:37:36 AM 36.2925 -120.6692 139° Southeast 371 427 27,000  Level Oakland Center
Fri 11:38:38 AM 36.2167 -120.5850 138° Southeast 368 423 27,000  Level Oakland Center
Fri 11:39:39 AM 36.1422 -120.5042 139° Southeast 362 417 27,000  Level Oakland Center
Fri 11:40:41 AM 36.0522 -120.4067 139° Southeast 358 412 27,000  Level Oakland Center
Fri 11:41:42 AM 35.9781 -120.3286 140° Southeast 353 406 27,000  Level Oakland Center
Fri 11:42:44 AM 35.9042 -120.2506 139° Southeast 350 403 27,000  Level Oakland Center
Fri 11:43:45 AM 35.8319 -120.1717 138° Southeast 348 400 27,000  Level Oakland Center
Fri 11:44:47 AM 35.7581 -120.0956 140° Southeast 346 398 27,000  Level Oakland Center
Fri 11:45:48 AM 35.6847 -120.0181 139° Southeast 347 399 27,000  Level Oakland Center
Fri 11:46:50 AM 35.6078 -119.9436 142° Southeast 351 404 27,000  Level Oakland Center
Fri 11:47:51 AM 35.5183 -119.8669 145° Southeast 384 442 27,000  Level Oakland Center
Fri 11:49:02 AM 35.4067 -119.7717 145° Southeast 407 468 27,000  Level Los Angeles Center
Fri 11:50:04 AM 35.3125 -119.6894 145° Southeast 413 475 27,000  Level Los Angeles Center
Fri 11:51:06 AM 35.2164 -119.6075 145° Southeast 417 480 27,000 -339 Level Los Angeles Center
Fri 11:52:08 AM 35.1214 -119.5253 145° Southeast 419 482 26,300 -1,210 Descending Los Angeles Center
Fri 11:53:10 AM 35.0108 -119.4311 145° Southeast 404 465 24,500 -1,113 Descending Los Angeles Center
Fri 11:54:12 AM 34.9253 -119.3589 145° Southeast 378 435 24,000 -242 Descending Los Angeles Center
Fri 11:55:14 AM 34.8400 -119.2850 145° Southeast 377 434 24,000  Level Los Angeles Center
Fri 11:56:17 AM 34.7528 -119.2119 145° Southeast 380 437 24,000 -528 Level Los Angeles Center
Fri 11:57:19 AM 34.6656 -119.1375 145° Southeast 384 442 22,900 -1,597 Descending Los Angeles Center
Fri 11:58:21 AM 34.5647 -119.0567 147° Southeast 369 425 20,700 -1,984 Descending Los Angeles Center
Fri 11:59:23 AM 34.4822 -118.9872 145° Southeast 361 415 18,800 -1,839 Descending Los Angeles Center
Fri 12:00:25 PM 34.4006 -118.9194 146° Southeast 357 411 16,900 -1,790 Descending Los Angeles Center
Fri 12:01:27 PM 34.3153 -118.8667 153° Southeast 345 397 15,100 -1,742 Descending Los Angeles Center
Fri 12:02:29 PM 34.2239 -118.8325 163° South 345 397 13,300 -2,032 Descending Los Angeles Center
Fri 12:03:31 PM 34.1172 -118.7933 163° South 334 384 10,900 -1,412 Descending Los Angeles Center
Fri 12:04:45 PM 34.0439 -118.7453 151° Southeast 306 352 10,100 -394 Descending Los Angeles Center
Fri 12:05:48 PM 34.0264 -118.6267 100° East 299 344 10,000 -816 Descending Los Angeles Center
Fri 12:06:50 PM 34.0164 -118.5217 97° East 293 337 8,400 -1,452 Descending Los Angeles Center
Fri 12:07:52 PM 34.0150 -118.4411 91° East 272 313 7,000 -1,452 Descending Los Angeles Center
Fri 12:08:54 PM 34.0225 -118.3589 84° East 250 288 5,400 -1,887 Descending Los Angeles Center
Fri 12:09:56 PM 34.0247 -118.2694 88° East 230 265 3,100 -1,548 Descending Los Angeles Center
Fri 12:10:58 PM 33.9772 -118.2714 182° South 194 223 2,200 -581 Descending Los Angeles Center
Fri 12:12:00 PM 33.9603 -118.3192 247° West 176 203 1,900 -624 Descending Los Angeles Center
Fri 12:13:03 PM 33.9572 -118.3642 265° West 153 176 900 -816 Descending Los Angeles Center
Fri 12:14:05 PM 33.9531 -118.4028 263° West 132 152 200 -677 Descending Los Angeles Center
Fri 12:16:00 PM 33.9425 -118.4081 228° Southwest  Level Estimated

Login

Don't have an account? Register now (free) for customized features, flight alerts, and more!